Location: Hodgson Observatory
(42.9992°N, 96.7577°W)
Time: 03:23:43
(UTC-05:00)

Daily predictions for brighter satellites

Satellite Brightness Start Highest point End
(mag) Time Altitude Azimuth Time Altitude Azimuth Time Altitude Azimuth
Cosmos 1842 3.4 00:06:40 66° NE 00:06:40 66° NE 00:10:08 10° N
Cosmos 1805 3.3 00:02:41 10° N 00:06:19 73° NNE 00:06:19 73° NNE
Cosmos 2058 Rocket 2.9 00:04:05 10° N 00:08:37 86° ENE 00:08:50 81° SE
Cosmos 1470 4.2 00:07:58 10° NNE 00:10:54 28° ENE 00:10:54 28° ENE
Cosmos 1818 4.4 00:13:58 34° E 00:13:58 34° E 00:18:07 10° NE
Terra 3.0 00:12:52 28° WSW 00:13:55 31° W 00:18:09 10° NNW
Iridium 4 Rocket 3.9 00:12:59 53° SE 00:14:01 61° E 00:19:50 10° N
Lacrosse 5 rocket 3.6 00:17:17 10° W 00:18:45 14° WSW 00:18:45 14° WSW
Cosmos 2333 Rocket 2.5 00:15:04 10° NNW 00:20:38 55° WSW 00:21:38 49° SW
COSMOS 2428 3.7 00:18:30 10° NW 00:23:28 32° WSW 00:24:36 30° SW
Abrixas rocket 4.0 00:20:41 10° WNW 00:23:33 30° N 00:23:33 30° N
CZ-2C R/B 4.0 00:22:23 34° SW 00:23:45 39° W 00:28:59 10° NNW
ALOS 2 3.4 00:23:42 40° ENE 00:23:48 40° ENE 00:27:55 10° N
SL-16 R/B 3.1 00:19:37 10° NNW 00:24:56 39° ENE 00:26:44 31° E
ISS -1.1 00:23:19 10° NW 00:25:46 19° N 00:27:41 13° NE
Cosmos 1953 3.0 00:24:27 10° N 00:27:47 48° NE 00:27:47 48° NE
Cosmos 489 Rocket 4.5 00:22:21 10° NNW 00:28:43 75° WSW 00:30:11 54° S
NOSS 0 Rocket 4.0 00:23:22 10° NNW 00:29:32 63° WSW 00:30:46 52° SSW
SL-19 R/B 4.3 00:27:14 10° NNE 00:33:26 77° ESE 00:34:35 59° S
Cosmos 1980 3.6 00:28:58 10° NNW 00:34:36 71° WSW 00:35:19 63° SSW
Cosmos 1707 4.1 00:37:14 32° NE 00:37:14 32° NE 00:39:51 10° NNE
Cosmos 1655 Rocket 4.1 00:30:03 10° NNW 00:36:24 69° W 00:38:00 50° SSW
Cosmos 2279 Rocket 4.2 00:34:45 42° SW 00:36:46 63° W 00:42:57 10° N
Cosmos 1626 Rocket 3.6 00:38:06 71° NE 00:38:06 71° NE 00:42:13 10° N
Cosmos 1812 Rocket 4.0 00:34:45 10° N 00:38:43 51° ENE 00:38:43 51° ENE
Cosmos 1602 Rocket 3.7 00:40:48 65° NE 00:40:48 65° NE 00:44:47 10° NNE
Spot 4 4.5 00:40:26 43° WSW 00:40:44 44° W 00:45:22 10° NNW
Cosmos 1538 Rocket 4.2 00:40:21 51° WSW 00:41:24 64° WNW 00:46:38 10° NNE
Cosmos 2297 Rocket 2.1 00:41:29 65° SSW 00:42:23 89° ESE 00:48:05 10° NNE
CZ-4 R/B 3.9 00:40:04 10° N 00:45:06 76° WNW 00:45:35 69° SW
Cosmos 2227 Rocket 2.2 00:44:40 56° SW 00:45:52 78° WNW 00:51:34 10° NNE
ADEOS Rocket 3.0 00:41:07 10° NNE 00:46:29 49° E 00:46:45 49° ESE
Cosmos 923 Rocket 4.0 00:48:10 67° ESE 00:48:13 67° ESE 00:53:26 10° NNE
Cosmos 1680 Rocket 3.8 00:49:28 51° E 00:49:28 51° E 00:54:18 10° NNE
Cosmos 2112 Rocket 4.5 00:52:41 46° E 00:52:41 46° E 00:57:20 10° NNE
Cosmos 2237 Rocket 2.4 00:46:49 10° NNW 00:52:23 55° WSW 00:52:51 53° SW
Cosmos 1378 4.1 00:57:27 47° N 00:57:27 47° N 01:00:15 10° N
Cosmos 2082 3.7 00:58:38 61° SW 00:59:39 80° WNW 01:05:26 10° NNE
CZ-4B R/B 3.4 00:55:15 10° NNE 01:00:22 73° ESE 01:00:30 72° ESE
ERBS 4.2 00:58:24 10° NW 01:00:13 28° NNW 01:00:13 28° NNW
H-2A R/B 2.2 01:04:03 70° NNE 01:04:03 70° NNE 01:07:55 10° N
Mayak -1.0 01:00:28 10° N 01:04:15 67° NNW 01:04:15 67° NNW
USA 229 DEB 3.8 01:13:42 50° SE 01:14:18 51° ESE 01:20:56 10° NE
USA 229 3.8 01:13:49 49° SE 01:14:25 51° ESE 01:21:01 10° NE
Cosmos 2266 Rocket 4.1 01:10:06 10° NNW 01:16:23 65° W 01:17:36 54° SW
Cosmos 1400 Rocket 3.4 01:29:35 59° NNE 01:29:35 59° NNE 01:33:00 10° N
Cosmos 1825 Rocket 3.7 01:31:56 71° N 01:31:56 71° N 01:35:55 10° N
CZ-4C R/B 4.5 01:27:55 10° WNW 01:32:54 19° WSW 01:33:40 19° WSW
COSMOS 2455 3.9 01:33:57 25° WSW 01:36:55 41° NW 01:42:36 10° NNE
MOS 1 Rocket 4.3 01:35:43 10° NNE 01:40:52 41° E 01:41:21 40° ESE
Cosmos 1238 Rocket 3.2 01:44:18 70° NNW 01:44:18 70° NNW 01:47:59 10° N
Cosmos 1417 Rocket 4.4 01:54:54 59° S 01:56:13 85° E 02:02:36 10° N
Meteor 1-24 Rocket 3.6 01:57:40 68° S 01:58:28 89° ESE 02:04:25 10° N
ISS -1.1 01:59:36 10° NW 02:00:17 15° NW 02:00:17 15° NW
Cosmos 1315 Rocket 3.3 02:04:05 57° N 02:04:05 57° N 02:07:18 10° N
Meteor 2-5 Rocket 4.1 02:04:41 47° WSW 02:05:46 53° WNW 02:11:35 10° N
SL-16 R/B 4.4 02:01:59 10° ESE 02:06:46 24° ENE 02:11:32 10° N
Cosmos 2263 Rocket 2.9 02:06:21 38° ESE 02:07:01 40° ESE 02:12:17 10° NE
Cosmos 1943 3.9 02:02:05 10° NNW 02:07:37 50° ENE 02:10:17 29° ESE
Cosmos 1908 3.9 02:03:50 10° N 02:06:56 53° NNE 02:06:56 53° NNE
Cosmos 1371 Rocket 4.2 02:02:57 10° NNW 02:07:59 55° W 02:07:59 55° W
Cosmos 1842 Rocket 4.3 02:03:56 10° N 02:08:07 43° ENE 02:08:26 42° E
SL-16 R/B 3.2 02:03:57 10° NW 02:08:36 32° W 02:08:36 32° W
Cosmos 1745 Rocket 4.0 02:03:58 10° N 02:10:22 80° E 02:12:07 51° SSE
GEOS 3 Rocket 4.3 02:08:32 10° NE 02:13:31 39° ESE 02:13:41 39° SE
Cosmos 1726 3.0 02:11:51 10° N 02:14:50 48° NE 02:14:50 48° NE
Cosmos 1300 4.4 02:12:19 10° NNE 02:15:35 26° ENE 02:15:57 25° E
Cosmos 1953 Rocket 4.5 02:20:43 37° WNW 02:20:43 37° WNW 02:24:34 10° N
Cosmos 1346 Rocket 3.2 02:17:36 10° NNW 02:20:44 56° NNW 02:20:44 56° NNW
CZ-4C R/B 4.2 02:22:57 39° N 02:22:57 39° N 02:25:13 10° N
Cosmos 1452 Rocket 3.8 02:17:33 10° NNW 02:22:49 63° ENE 02:24:23 43° SE
Cosmos 158 Rocket 4.2 02:22:59 54° SE 02:23:44 60° ESE 02:29:02 10° NNE
Cosmos 2056 Rocket 3.8 02:20:03 10° NNW 02:24:45 48° W 02:24:45 48° W
Cosmos-2242 3.9 02:22:15 10° NNW 02:25:42 39° WNW 02:25:42 39° WNW
Cosmos 2297 Rocket 4.4 02:23:38 10° W 02:27:14 17° NW 02:30:51 10° N
S3M 4.0 02:25:53 53° SW 02:27:20 72° W 02:33:37 10° N
ADEOS Rocket 4.4 02:27:27 10° NNW 02:31:42 23° WNW 02:33:42 19° W
Landsat 5 3.4 02:35:46 73° E 02:35:52 73° ENE 02:39:53 10° N
Cosmos 1386 Rocket 4.4 02:33:30 10° N 02:39:50 76° W 02:41:36 49° SSW
Cosmos 1603 3.8 02:35:11 10° NNW 02:40:43 54° WSW 02:41:15 52° SW
NOSS 3-1 (C) 3.4 02:43:35 45° WSW 02:45:24 72° NW 02:51:52 10° NNE
Meteor 2-13 Rocket 4.4 02:39:48 10° NNW 02:45:48 68° W 02:47:20 49° SSW
Cosmos 1709 Rocket 4.1 02:40:52 10° N 02:47:16 77° E 02:50:00 37° SSE
SL-24 R/B - RUBIN 2 4.5 02:47:47 41° SE 02:48:33 43° ESE 02:53:11 10° NE
CZ-4B R/B 1.9 02:49:22 58° N 02:49:22 58° N 02:52:11 10° NNW
SL-14 R/B 3.3 02:50:47 71° E 02:50:47 71° E 02:54:34 10° NNE
Cosmos 1420 Rocket 3.9 02:46:04 10° NNW 02:51:18 86° WSW 02:52:36 52° SSE
Cosmos 1626 3.0 02:57:05 38° ESE 02:57:24 39° E 03:00:54 10° NNE
SeaSat 1 4.0 02:53:26 10° ESE 02:57:52 35° NE 03:02:19 10° N
Cosmos 2285 Rocket 4.0 02:56:20 42° S 02:58:37 77° ESE 03:04:59 10° NNE
Cosmos 1076 Rocket 4.0 02:59:25 44° SE 03:00:19 52° E 03:04:32 10° NNE
Cosmos 1674 4.2 03:01:38 24° WNW 03:01:38 24° WNW 03:04:25 10° NNW
Spot 2 4.4 02:58:43 10° N 03:03:48 74° WNW 03:04:55 53° SW
Cosmos 1328 4.4 03:03:38 43° SE 03:04:18 48° E 03:08:10 10° NNE
CBERS-1 4.5 02:59:39 10° NNE 03:04:41 54° E 03:06:29 36° SSE
Cosmos 1689 Rocket 3.2 03:06:41 40° NW 03:06:41 40° NW 03:08:52 10° NNW
NOSS 3-1 (A) 3.4 03:04:05 41° SW 03:06:12 74° NW 03:12:42 10° NE
NOSS 2-3 (C) 4.5 03:07:51 36° SSE 03:08:51 41° ESE 03:13:44 10° NE
CZ-2D R/B 2.8 03:03:51 10° NNE 03:08:52 45° E 03:11:07 28° SSE
SL-08 R/B 3.7 03:10:45 26° SSE 03:13:27 64° ENE 03:18:20 10° N
Cosmos 2221 2.5 03:09:30 10° NNW 03:13:54 71° W 03:14:34 59° SSW
Genesis I 3.0 03:13:50 74° SW 03:14:11 89° WNW 03:18:14 10° NE
Cosmos 1340 3.1 03:10:37 10° NNW 03:13:56 48° WNW 03:13:56 48° WNW
USA 267 3.9 03:08:21 10° ENE 03:14:29 41° SE 03:17:05 29° S
IRS-1D 4.5 03:09:42 10° NNE 03:14:47 43° E 03:17:28 25° SSE
Meteor 1-21 Rocket 4.5 03:13:16 40° SW 03:15:14 61° WNW 03:21:08 10° N
ARIANE 5 R/B 3.8 03:14:13 10° NNE 03:18:49 33° E 03:21:43 19° SSE
H-II Stage 2 4.4 03:24:03 20° SSE 03:24:26 20° SSE 03:32:02 10° ESE
Resurs 1-4 Rocket 2.3 03:21:55 10° NNE 03:27:13 69° ESE 03:29:44 32° S
Meteor 2-19 Rocket 4.3 03:22:19 10° N 03:28:24 80° W 03:31:43 29° S
Cosmos 1844 Rocket 3.5 03:29:00 23° SSE 03:32:02 42° ESE 03:37:22 10° NE
OAO 2 Rocket 4.2 03:32:58 30° SSE 03:32:58 30° SSE 03:37:03 10° ESE
Aureole 1 Rocket 3.6 03:33:17 27° WNW 03:33:17 27° WNW 03:35:48 10° N
IRS-P3 4.1 03:29:51 10° NNE 03:35:12 82° WNW 03:37:34 34° SSW
PSLV R/B 4.4 03:33:26 20° SSE 03:36:08 59° ENE 03:40:17 10° N
NPP 3.7 03:32:46 10° N 03:38:08 70° WNW 03:40:33 33° SSW
DELTA 2 R/B (1) 3.7 03:36:33 24° WSW 03:39:33 48° SSW 03:44:54 10° ESE
MOZ.5/SAFIR/RUBIN 5/SL-8 4.0 03:37:41 19° SSE 03:41:07 74° ENE 03:45:52 10° N
Cosmos 2278 Rocket 4.5 03:39:26 10° SE 03:42:53 17° E 03:46:20 10° ENE
Cosmos 1703 3.3 03:42:47 37° S 03:44:14 75° E 03:48:12 10° NNE
ADEOS II 4.0 03:42:35 10° NE 03:46:47 24° E 03:50:57 10° SSE
Cosmos 1766 Rocket 3.5 03:45:12 35° S 03:47:01 87° E 03:51:24 10° N
Cosmos 921 Rocket 2.9 03:43:31 10° NNW 03:47:48 70° WSW 03:49:53 30° S
SL-16 R/B 2.6 03:45:56 23° S 03:49:54 62° WSW 03:56:04 10° NNW
Cosmos 2263 Rocket 3.3 03:48:02 21° WSW 03:50:59 33° NW 03:56:07 10° N
Cosmos 1300 4.3 03:48:14 10° NW 03:50:55 20° W 03:50:55 20° W
Cosmos 1943 4.3 03:46:47 10° NW 03:51:19 25° WSW 03:52:03 24° WSW
Cosmos 2228 Rocket 4.4 03:47:36 10° N 03:51:56 40° ENE 03:56:13 10° SSE
UNKNOWN OBJECT B 4.1 03:52:33 10° NNE 03:55:58 33° E 03:58:38 15° SSE
Cosmos 1331 Rocket 3.9 03:51:35 10° NNW 03:56:46 88° WSW 04:01:56 10° SSE
Cosmos 1269 Rocket 4.4 03:56:30 28° SW 03:59:05 51° WNW 04:04:16 10° N
Meteor 1-11 4.2 03:56:32 26° SSW 03:59:50 77° WNW 04:05:31 10° N
NOSS 2-3 (D) 3.8 03:58:00 30° SW 04:00:18 77° NW 04:05:42 10° NE
Cosmos 1455 2.0 03:57:40 10° N 04:01:27 78° W 04:03:22 27° S
H-2A R/B 3.0 03:57:10 10° N 04:01:29 49° WNW 04:03:22 29° SW
Cosmos 1515 Rocket 4.3 03:59:03 10° N 04:03:18 52° E 04:07:32 10° SSE
Cosmos 1809 Rocket 4.4 03:59:52 10° N 04:06:00 88° W 04:12:05 10° S
Meteor 2-2 Rocket 4.4 04:03:33 10° NNW 04:09:10 54° W 04:13:04 19° SSW
Helios 1A Rocket 3.5 04:06:20 10° NNE 04:10:21 54° E 04:13:25 16° S
Cosmos 2251 Rocket 3.9 04:08:21 18° S 04:12:22 65° ESE 04:17:42 10° NNE
Cosmos 2058 2.9 04:10:58 23° S 04:13:32 84° W 04:17:46 10° N
Cosmos 1408 Rocket 3.7 04:11:30 26° SSW 04:13:44 58° W 04:18:03 10° N
COSMOS 2406 3.6 04:08:10 10° NNW 04:13:57 70° ENE 04:19:42 10° SSE
Cosmos 1151 Rocket 3.3 04:10:58 10° N 04:15:21 71° E 04:19:40 10° SSE
Geosat 4.0 04:12:19 10° NNE 04:17:23 83° WNW 04:20:50 21° SSW
ADEOS 3.9 04:13:29 10° NNE 04:18:42 66° ESE 04:23:30 12° S
NOSS 2-3 (E) 4.4 04:18:05 21° WSW 04:21:06 51° NW 04:26:26 10° NNE
CRYOSAT 2 4.4 04:19:03 17° S 04:22:45 61° W 04:27:37 10° NNW
CZ-2D R/B 3.7 04:19:41 10° NNE 04:24:09 80° ESE 04:27:52 15° S
Timation 1 Rocket 4.3 04:19:50 18° SSW 04:24:20 87° ESE 04:30:20 10° NNE
SAR-Lupe-2 3.5 04:22:56 16° S 04:25:37 61° WSW 04:29:10 10° NNW
NOSS 8 (A) 4.3 04:24:36 25° SSW 04:26:19 72° ESE 04:29:30 10° NE
ATLAS 2AS CENTAUR R/B 3.4 04:22:31 14° SSW 04:29:20 62° ESE 04:37:20 10° NE
Cosmos 1626 4.2 04:31:42 12° W 04:32:55 14° WNW 04:34:53 10° NW
Nadezhda 1 Rocket 4.2 04:29:56 16° SSW 04:34:52 55° WNW 04:41:05 10° N
SeaSat 1 3.1 04:31:00 11° S 04:35:20 34° WSW 04:39:50 10° NW
Spot 4 Rocket 4.5 04:31:47 10° N 04:36:42 46° WNW 04:40:36 16° SW
Cosmos 2154 Rocket 4.1 04:35:08 10° NNW 04:41:20 62° W 04:47:33 10° S
Cosmos 1743 Rocket 3.7 04:41:28 15° SSW 04:44:58 54° W 04:49:14 10° N
BREEZE-M DEB (TANK) 3.9 04:43:45 10° W 04:47:13 45° NNW 04:51:40 10° ENE
Cosmos 2151 3.5 04:44:02 15° SW 04:47:18 43° WNW 04:51:26 10° N
CZ-2D R/B 3.4 04:44:31 10° NNW 04:48:39 24° WNW 04:52:27 11° WSW
Orbus 7S? 2.6 04:49:52 17° SW 04:51:42 78° SE 04:55:14 10° NE
Cosmos 405 Rocket 2.7 04:49:38 10° NNW 04:53:27 63° W 04:57:10 10° S
Cosmos 1295 Rocket 4.4 04:49:03 10° NNW 04:55:07 73° W 05:01:13 10° S
Cosmos 2098 Rocket 4.5 04:49:46 10° N 04:55:56 72° E 05:03:10 10° SSE
USA 267 3.6 04:51:12 10° NE 04:57:40 64° NW 05:04:05 10° WSW
ARIANE 5 R/B 3.5 04:53:26 10° N 04:57:51 31° WNW 05:02:04 11° SW
Cosmos 1805 Rocket 4.2 04:55:06 10° S 04:59:20 57° E 05:03:36 10° NNE
Cosmos 220 Rocket 4.5 05:00:58 11° SW 05:04:57 46° WNW 05:09:08 10° N
Meteor 2-10 Rocket 3.6 05:00:24 10° NNW 05:05:20 54° W 05:10:11 10° S
Resurs 1-4 Rocket 3.9 05:03:05 10° NNW 05:06:29 18° WNW 05:09:54 10° W
Cosmos 2218 Rocket 4.2 05:01:45 10° N 05:07:57 80° E 05:14:05 10° S
CZ-4B R/B 4.2 05:05:39 10° NNE 05:08:58 34° E 05:12:19 10° SSE
ATLAS 3B R/B 3.0 05:02:50 10° NNW 05:09:29 71° NE 05:16:01 10° SE
In-Cosmos 22 Rocket 4.3 05:08:13 10° S 05:13:40 81° E 05:19:01 10° NNE
Cosmos 1844 Rocket 3.8 05:11:04 10° WSW 05:16:03 31° NW 05:21:04 10° N
Cosmos 1441 Rocket 4.3 05:13:08 10° NNW 05:16:31 27° W 05:19:51 10° SSW
OAO 2 Rocket 4.2 05:12:34 10° WSW 05:16:54 30° S 05:21:12 10° SE
BREEZE-M DEB (TANK) 4.2 05:15:15 10° NW 05:17:31 32° NNE 05:21:55 10° E
Cosmos 1707 Rocket 4.0 05:14:44 10° N 05:19:13 71° E 05:23:39 10° SSE
SL-27 R/B 4.1 05:21:45 10° N 05:25:11 41° ENE 05:28:38 10° SE
Cosmos 2278 Rocket 2.3 05:20:39 10° SSW 05:26:17 71° WNW 05:31:59 10° NNE
ADEOS II 2.6 05:21:41 10° N 05:26:40 45° WNW 05:31:39 10° SW
